contact:dominique.lefevre@mio.osupytheas.fr, maurice.libes@osupytheas.fr, didier.mallarino@osupytheas.fr
Project:EMSO http://www.emso-fr.org/EMSO-France
Depth: 2436.0 m
Title:EMSO Ligure Ouest : Data MII capteur AQUADOPP
Date,Latitude,Longitude,X_East,Y_North,Z_Up,Amplitude_X,Amplitude_Y,Amplitude_Z,Batterie,SoundSpeed,Heading,Pitch,Roll,Pressure,TIS,Speed,Direction
, degrees North, degrees East, m.s-1, m.s-1,m.s-1, 1, 1, 1, Volt, m.s-1, degree, degree, degree, dbar, degree_C, m.s-1, degree
2021-09-28T00:04:03,42.805,6.029,0.021,-0.012,-0.012,104.0,103.0,103.0,13.4,1505.2,326.1,-0.7,1.8,2470.647,13.28,0.024,119.7
2021-09-28T00:07:03,42.805,6.029,0.039,0.008,0.0,104.0,102.0,102.0,13.4,1505.2,326.8,-0.8,1.8,2470.584,13.28,0.039,78.4
2021-09-28T00:10:03,42.805,6.029,0.044,-0.014,-0.01,102.0,103.0,103.0,13.4,1505.2,325.7,-0.8,1.8,2470.599,13.28,0.046,107.6
2021-09-28T00:13:03,42.805,6.029,0.039,-0.014,-0.019,104.0,104.0,102.0,13.4,1505.2,331.1,-0.7,1.8,2470.634,13.28,0.041,109.7
2021-09-28T00:16:03,42.805,6.029,0.037,-0.019,0.01,104.0,103.0,102.0,13.4,1505.2,327.2,-0.7,1.8,2470.59,13.28,0.041,117.2
2021-09-28T00:19:03,42.805,6.029,0.007,0.004,-0.015,103.0,103.0,102.0,13.4,1505.2,328.0,-0.8,1.8,2470.568,13.28,0.008,60.3
2021-09-28T00:22:03,42.805,6.029,0.046,0.003,0.009,104.0,104.0,102.0,13.3,1505.2,327.4,-0.7,1.8,2470.64,13.28,0.046,86.3
2021-09-28T00:25:03,42.805,6.029,0.033,0.003,-0.015,104.0,103.0,102.0,13.3,1505.2,329.0,-0.8,1.8,2470.591,13.28,0.033,84.8
2021-09-28T00:28:03,42.805,6.029,0.025,0.002,0.025,105.0,104.0,102.0,13.4,1505.2,328.2,-0.8,1.8,2470.593,13.28,0.025,85.4
2021-09-28T00:31:03,42.805,6.029,0.037,-0.001,-0.003,104.0,104.0,102.0,13.4,1505.2,331.5,-0.7,1.8,2470.614,13.28,0.037,91.5
2021-09-28T00:34:03,42.805,6.029,0.046,0.0,0.014,104.0,104.0,101.0,13.4,1505.2,327.7,-0.8,1.8,2470.583,13.28,0.046,90.0
2021-09-28T00:37:03,42.805,6.029,0.032,-0.015,0.0,105.0,104.0,102.0,13.4,1505.2,326.6,-0.7,1.8,2470.626,13.28,0.035,115.1
2021-09-28T00:40:03,42.805,6.029,0.038,-0.014,0.007,102.0,104.0,103.0,13.4,1505.2,327.9,-0.8,1.8,2470.581,13.28,0.04,110.2
2021-09-28T00:43:03,42.805,6.029,0.023,-0.003,0.009,103.0,103.0,103.0,13.4,1505.2,328.7,-0.8,1.8,2470.625,13.28,0.023,97.4
2021-09-28T00:46:03,42.805,6.029,0.03,0.003,0.014,103.0,103.0,103.0,13.4,1505.2,329.3,-0.7,1.8,2470.528,13.28,0.03,84.3
2021-09-28T00:49:03,42.805,6.029,0.038,0.001,0.009,104.0,104.0,101.0,13.3,1505.2,331.2,-0.7,1.8,2470.612,13.28,0.038,88.5
2021-09-28T00:52:03,42.805,6.029,0.014,-0.009,-0.01,105.0,104.0,102.0,13.4,1505.2,326.2,-0.8,1.8,2470.594,13.28,0.016,122.7
2021-09-28T00:55:03,42.805,6.029,0.048,-0.002,-0.017,104.0,104.0,102.0,13.4,1505.2,326.9,-0.8,1.8,2470.596,13.28,0.048,92.4
2021-09-28T00:58:03,42.805,6.029,0.046,0.003,0.024,104.0,103.0,101.0,13.4,1505.2,327.4,-0.7,1.8,2470.566,13.28,0.046,86.3
2021-09-28T01:04:03,42.805,6.029,0.028,0.019,-0.03,105.0,105.0,102.0,13.3,1505.2,330.1,-0.8,1.8,2470.646,13.28,0.033,55.8
2021-09-28T01:07:03,42.805,6.029,0.064,-0.032,-0.027,105.0,104.0,103.0,13.4,1505.2,328.7,-0.8,1.8,2470.615,13.28,0.071,116.6
2021-09-28T01:10:03,42.805,6.029,0.042,0.009,0.033,104.0,104.0,103.0,13.4,1505.2,327.1,-0.8,1.8,2470.646,13.28,0.042,77.9
2021-09-28T01:13:03,42.805,6.029,0.04,0.0,-0.03,105.0,104.0,102.0,13.3,1505.2,328.0,-0.7,1.8,2470.594,13.28,0.04,90.0
2021-09-28T01:16:03,42.805,6.029,0.028,-0.026,-0.007,103.0,104.0,104.0,13.4,1505.2,326.9,-0.7,1.8,2470.659,13.28,0.038,132.9
2021-09-28T01:19:03,42.805,6.029,0.05,-0.015,-0.002,104.0,106.0,102.0,13.4,1505.2,329.4,-0.8,1.8,2470.607,13.28,0.052,106.7
2021-09-28T01:22:03,42.805,6.029,0.027,0.01,0.02,104.0,105.0,101.0,13.3,1505.2,328.2,-0.7,1.8,2470.62,13.28,0.028,69.7
2021-09-28T01:25:03,42.805,6.029,0.044,-0.025,-0.005,104.0,103.0,102.0,13.3,1505.2,325.9,-0.7,1.8,2470.578,13.28,0.05,119.6
2021-09-28T01:28:03,42.805,6.029,0.032,-0.009,0.006,103.0,103.0,102.0,13.4,1505.2,328.9,-0.8,1.8,2470.589,13.28,0.033,105.7
2021-09-28T01:31:03,42.805,6.029,0.044,-0.001,-0.023,104.0,104.0,102.0,13.3,1505.2,328.4,-0.8,1.8,2470.591,13.28,0.044,91.3
2021-09-28T01:34:03,42.805,6.029,0.04,-0.014,-0.01,103.0,104.0,101.0,13.4,1505.2,327.3,-0.7,1.8,2470.585,13.28,0.042,109.3
2021-09-28T01:37:03,42.805,6.029,0.043,-0.006,0.008,103.0,104.0,102.0,13.4,1505.2,329.3,-0.8,1.8,2470.578,13.28,0.043,97.9
2021-09-28T01:40:03,42.805,6.029,0.021,-0.009,-0.004,103.0,104.0,102.0,13.3,1505.2,327.2,-0.8,1.8,2470.565,13.28,0.022,113.2
2021-09-28T01:43:03,42.805,6.029,0.035,-0.024,-0.009,103.0,103.0,102.0,13.3,1505.2,330.8,-0.7,1.8,2470.573,13.28,0.042,124.4
2021-09-28T01:46:03,42.805,6.029,0.031,0.002,0.009,104.0,103.0,102.0,13.4,1505.2,329.0,-0.7,1.8,2470.557,13.28,0.031,86.3
2021-09-28T01:49:03,42.805,6.029,0.039,0.002,0.002,102.0,102.0,103.0,13.4,1505.2,328.2,-0.8,1.8,2470.582,13.28,0.039,87.1
2021-09-28T01:52:03,42.805,6.029,0.03,0.01,0.003,103.0,103.0,102.0,13.4,1505.2,328.2,-0.8,1.8,2470.58,13.28,0.031,71.6
2021-09-28T01:55:03,42.805,6.029,0.035,-0.019,-0.022,102.0,104.0,102.0,13.4,1505.2,326.0,-0.8,1.8,2470.566,13.28,0.039,118.5
2021-09-28T01:58:03,42.805,6.029,0.027,0.016,0.0,104.0,102.0,103.0,13.4,1505.2,329.8,-0.8,1.9,2470.572,13.28,0.031,59.3
2021-09-28T02:04:03,42.805,6.029,0.046,0.001,-0.002,103.0,105.0,101.0,13.3,1505.2,328.7,-0.7,1.8,2470.646,13.28,0.046,88.8
2021-09-28T02:07:03,42.805,6.029,0.024,-0.01,0.01,104.0,104.0,103.0,13.4,1505.2,325.8,-0.8,1.8,2470.601,13.28,0.026,112.6
2021-09-28T02:10:03,42.805,6.029,0.029,-0.012,-0.009,103.0,104.0,103.0,13.4,1505.2,326.0,-0.8,1.8,2470.603,13.28,0.031,112.5
2021-09-28T02:13:03,42.805,6.029,0.04,-0.014,-0.01,104.0,104.0,102.0,13.4,1505.2,327.6,-0.8,1.8,2470.605,13.28,0.042,109.3
2021-09-28T02:16:03,42.805,6.029,0.034,-0.003,0.001,104.0,102.0,102.0,13.4,1505.2,330.2,-0.8,1.8,2470.596,13.28,0.034,95.0
2021-09-28T02:19:03,42.805,6.029,0.027,-0.012,0.016,103.0,103.0,102.0,13.4,1505.2,328.6,-0.7,1.8,2470.606,13.28,0.029,114.0
2021-09-28T02:22:03,42.805,6.029,0.043,0.0,0.01,102.0,103.0,102.0,13.4,1505.2,329.3,-0.8,1.8,2470.563,13.28,0.043,90.0
2021-09-28T02:25:03,42.805,6.029,0.018,-0.006,-0.005,104.0,104.0,101.0,13.3,1505.2,329.3,-0.7,1.8,2470.586,13.28,0.018,108.4
2021-09-28T02:28:03,42.805,6.029,0.051,-0.005,0.016,103.0,103.0,101.0,13.4,1505.2,329.4,-0.8,1.8,2470.582,13.28,0.051,95.6
2021-09-28T02:31:03,42.805,6.029,0.037,-0.014,-0.001,103.0,103.0,101.0,13.4,1505.2,327.3,-0.8,1.8,2470.561,13.28,0.039,110.7
2021-09-28T02:34:03,42.805,6.029,0.04,-0.025,0.021,102.0,104.0,102.0,13.4,1505.2,328.3,-0.8,1.8,2470.562,13.28,0.047,122.0
2021-09-28T02:37:03,42.805,6.029,0.06,-0.019,0.012,102.0,104.0,102.0,13.4,1505.2,329.7,-0.8,1.8,2470.524,13.28,0.062,107.6
2021-09-28T02:40:03,42.805,6.029,0.038,0.008,0.011,105.0,103.0,103.0,13.3,1505.2,327.1,-0.7,1.8,2470.538,13.28,0.038,78.1
2021-09-28T02:43:03,42.805,6.029,0.031,-0.017,0.009,104.0,103.0,102.0,13.4,1505.2,331.6,-0.8,1.8,2470.565,13.28,0.035,118.7
2021-09-28T02:46:03,42.805,6.029,0.016,-0.004,0.021,103.0,104.0,101.0,13.3,1505.2,327.8,-0.8,1.8,2470.529,13.28,0.016,104.0
2021-09-28T02:49:03,42.805,6.029,0.044,-0.028,0.031,104.0,103.0,102.0,13.4,1505.2,327.1,-0.8,1.8,2470.546,13.28,0.052,122.5
2021-09-28T02:52:03,42.805,6.029,0.028,-0.006,-0.021,103.0,103.0,102.0,13.4,1505.2,325.6,-0.8,1.8,2470.551,13.28,0.028,102.1
2021-09-28T02:55:03,42.805,6.029,0.049,-0.015,-0.005,104.0,104.0,102.0,13.4,1505.2,326.1,-0.7,1.8,2470.542,13.28,0.051,107.0
2021-09-28T02:58:03,42.805,6.029,0.026,0.001,-0.006,104.0,105.0,102.0,13.4,1505.2,329.1,-0.7,1.8,2470.557,13.28,0.026,87.8
2021-09-28T03:04:03,42.805,6.029,0.017,-0.018,0.01,103.0,102.0,102.0,13.3,1505.2,329.3,-0.8,1.9,2470.588,13.28,0.024,136.6
2021-09-28T03:07:03,42.805,6.029,0.023,-0.014,-0.002,103.0,103.0,102.0,13.4,1505.2,329.2,-0.7,1.8,2470.577,13.28,0.026,121.3
2021-09-28T03:10:03,42.805,6.029,0.032,-0.027,0.001,103.0,103.0,102.0,13.4,1505.2,329.7,-0.8,1.8,2470.578,13.28,0.041,130.2
2021-09-28T03:13:03,42.805,6.029,0.016,0.013,0.013,104.0,102.0,101.0,13.4,1505.2,326.4,-0.7,1.8,2470.573,13.28,0.02,50.9
2021-09-28T03:16:03,42.805,6.029,0.036,-0.016,-0.001,104.0,104.0,102.0,13.3,1505.2,327.1,-0.8,1.8,2470.556,13.28,0.039,114.0
2021-09-28T03:19:03,42.805,6.029,0.036,-0.013,0.038,104.0,103.0,102.0,13.4,1505.2,328.9,-0.7,1.9,2470.556,13.28,0.038,109.9
2021-09-28T03:22:03,42.805,6.029,0.031,-0.022,0.0,104.0,104.0,103.0,13.4,1505.2,330.8,-0.8,1.8,2470.575,13.28,0.038,125.4
2021-09-28T03:25:03,42.805,6.029,0.037,0.0,-0.02,102.0,104.0,102.0,13.3,1505.2,327.1,-0.7,1.8,2470.551,13.28,0.037,90.0
2021-09-28T03:28:03,42.805,6.029,0.036,-0.009,-0.018,104.0,103.0,102.0,13.4,1505.2,326.3,-0.7,1.8,2470.521,13.28,0.037,104.0
2021-09-28T03:31:03,42.805,6.029,0.027,-0.013,-0.014,104.0,103.0,103.0,13.4,1505.2,327.9,-0.7,1.8,2470.537,13.28,0.029,115.7
2021-09-28T03:34:03,42.805,6.029,0.047,0.003,0.008,104.0,104.0,102.0,13.3,1505.2,329.2,-0.7,1.9,2470.532,13.28,0.047,86.4
2021-09-28T03:37:03,42.805,6.029,0.06,-0.021,-0.006,104.0,103.0,102.0,13.4,1505.2,327.8,-0.8,1.8,2470.516,13.28,0.063,109.3
2021-09-28T03:40:03,42.805,6.029,0.026,-0.017,0.0,104.0,103.0,102.0,13.4,1505.2,327.2,-0.7,1.8,2470.539,13.28,0.031,123.2
2021-09-28T03:43:03,42.805,6.029,0.021,-0.022,-0.05,103.0,103.0,101.0,13.3,1505.2,329.4,-0.8,1.8,2470.521,13.28,0.03,136.3
2021-09-28T03:46:03,42.805,6.029,0.042,-0.007,-0.004,103.0,104.0,101.0,13.4,1505.2,329.7,-0.7,1.8,2470.499,13.28,0.042,99.5
2021-09-28T03:49:03,42.805,6.029,0.053,-0.01,0.004,102.0,103.0,101.0,13.4,1505.2,330.1,-0.7,1.8,2470.551,13.28,0.053,100.7
2021-09-28T03:52:03,42.805,6.029,0.009,-0.01,-0.028,103.0,103.0,101.0,13.4,1505.2,329.1,-0.7,1.8,2470.525,13.28,0.013,138.0
2021-09-28T03:55:03,42.805,6.029,0.037,-0.012,0.008,104.0,102.0,102.0,13.4,1505.2,327.7,-0.8,1.8,2470.551,13.28,0.038,108.0
2021-09-28T03:58:03,42.805,6.029,0.022,-0.028,0.019,102.0,104.0,101.0,13.3,1505.2,327.5,-0.8,1.8,2470.507,13.28,0.035,141.8
2021-09-28T04:04:03,42.805,6.029,0.018,-0.023,-0.028,103.0,104.0,101.0,13.3,1505.2,328.7,-0.7,1.8,2470.586,13.28,0.029,142.0
2021-09-28T04:07:03,42.805,6.029,0.029,-0.003,0.007,103.0,102.0,101.0,13.4,1505.2,330.3,-0.8,1.8,2470.573,13.28,0.029,95.9
2021-09-28T04:10:03,42.805,6.029,0.034,0.002,-0.019,103.0,103.0,101.0,13.4,1505.2,325.5,-0.8,1.8,2470.582,13.28,0.034,86.6
2021-09-28T04:13:03,42.805,6.029,0.026,-0.011,-0.029,102.0,104.0,101.0,13.4,1505.2,328.8,-0.8,1.8,2470.598,13.28,0.028,112.9
2021-09-28T04:16:03,42.805,6.029,0.036,0.021,-0.001,103.0,103.0,101.0,13.4,1505.2,327.2,-0.7,1.8,2470.548,13.28,0.041,59.7
2021-09-28T04:19:03,42.805,6.029,0.038,0.003,-0.002,104.0,102.0,102.0,13.3,1505.2,327.4,-0.8,1.8,2470.55,13.28,0.038,85.5
2021-09-28T04:22:03,42.805,6.029,0.022,-0.002,0.01,103.0,102.0,102.0,13.3,1505.2,326.6,-0.8,1.8,2470.525,13.28,0.022,95.2
2021-09-28T04:25:03,42.805,6.029,0.037,0.005,0.021,102.0,103.0,101.0,13.4,1505.2,330.0,-0.7,1.8,2470.567,13.28,0.037,82.3
2021-09-28T04:28:03,42.805,6.029,0.02,-0.007,-0.006,102.0,101.0,102.0,13.4,1505.2,331.4,-0.8,1.8,2470.544,13.28,0.021,109.3
2021-09-28T04:31:03,42.805,6.029,0.039,-0.028,-0.014,101.0,102.0,101.0,13.3,1505.2,329.1,-0.8,1.8,2470.529,13.28,0.048,125.7
2021-09-28T04:34:03,42.805,6.029,0.029,-0.01,0.008,102.0,102.0,101.0,13.4,1505.2,330.6,-0.7,1.8,2470.557,13.28,0.03,109.0
2021-09-28T04:37:03,42.805,6.029,0.024,-0.009,-0.004,102.0,101.0,102.0,13.3,1505.2,330.5,-0.8,1.8,2470.508,13.28,0.025,110.6
2021-09-28T04:40:03,42.805,6.029,0.059,-0.026,0.008,101.0,102.0,101.0,13.3,1505.2,330.8,-0.8,1.9,2470.512,13.28,0.064,113.8
2021-09-28T04:43:03,42.805,6.029,0.043,-0.005,0.031,102.0,102.0,102.0,13.4,1505.2,326.4,-0.8,1.8,2470.559,13.28,0.043,96.6
2021-09-28T04:46:03,42.805,6.029,0.039,-0.026,-0.007,102.0,102.0,100.0,13.3,1505.2,329.4,-0.7,1.8,2470.53,13.28,0.046,123.7
2021-09-28T04:49:03,42.805,6.029,0.024,-0.001,0.003,103.0,102.0,101.0,13.4,1505.2,328.3,-0.7,1.8,2470.536,13.28,0.024,92.4
2021-09-28T04:52:03,42.805,6.029,0.013,-0.018,-0.027,102.0,102.0,101.0,13.3,1505.2,329.2,-0.7,1.8,2470.521,13.28,0.022,144.2
2021-09-28T04:55:03,42.805,6.029,0.026,0.001,0.005,102.0,103.0,102.0,13.4,1505.2,328.7,-0.8,1.8,2470.541,13.28,0.026,87.8
2021-09-28T04:58:03,42.805,6.029,0.007,-0.022,0.002,103.0,103.0,102.0,13.4,1505.2,326.0,-0.8,1.8,2470.544,13.28,0.023,162.4
2021-09-28T05:04:03,42.805,6.029,0.039,-0.011,-0.003,102.0,103.0,101.0,13.3,1505.2,327.9,-0.7,1.8,2470.526,13.28,0.04,105.7
2021-09-28T05:07:03,42.805,6.029,0.042,-0.008,0.024,103.0,103.0,103.0,13.4,1505.2,329.1,-0.8,1.9,2470.53,13.28,0.042,100.8
2021-09-28T05:10:03,42.805,6.029,0.021,-0.018,-0.037,103.0,102.0,102.0,13.4,1505.2,326.5,-0.8,1.8,2470.527,13.28,0.027,130.6
2021-09-28T05:13:03,42.805,6.029,0.024,-0.011,0.0,102.0,103.0,101.0,13.4,1505.2,328.1,-0.7,1.8,2470.515,13.28,0.026,114.6
2021-09-28T05:16:03,42.805,6.029,0.038,-0.021,0.008,101.0,104.0,101.0,13.3,1505.2,329.5,-0.8,1.8,2470.552,13.28,0.043,118.9
2021-09-28T05:19:03,42.805,6.029,0.031,-0.01,-0.001,102.0,101.0,102.0,13.4,1505.2,329.3,-0.7,1.8,2470.521,13.28,0.032,107.9
2021-09-28T05:22:03,42.805,6.029,0.037,-0.018,-0.006,103.0,102.0,101.0,13.4,1505.2,328.1,-0.8,1.8,2470.534,13.28,0.041,115.9
2021-09-28T05:25:03,42.805,6.029,0.04,-0.025,-0.016,102.0,104.0,101.0,13.3,1505.2,328.4,-0.7,1.8,2470.552,13.28,0.047,122.0
2021-09-28T05:28:03,42.805,6.029,0.031,-0.014,-0.015,102.0,104.0,102.0,13.3,1505.2,329.1,-0.8,1.8,2470.523,13.28,0.034,114.3
2021-09-28T05:31:03,42.805,6.029,0.027,-0.001,0.0,102.0,103.0,101.0,13.3,1505.2,325.4,-0.8,1.8,2470.506,13.28,0.027,92.1
2021-09-28T05:34:02,42.805,6.029,0.037,-0.004,-0.006,103.0,104.0,102.0,13.4,1505.2,327.5,-0.7,1.8,2470.516,13.28,0.037,96.2
2021-09-28T05:37:03,42.805,6.029,0.012,-0.017,-0.015,103.0,101.0,102.0,13.4,1505.2,330.5,-0.7,1.8,2470.515,13.28,0.02,144.8
2021-09-28T05:40:03,42.805,6.029,0.027,-0.008,-0.009,103.0,103.0,101.0,13.4,1505.2,327.5,-0.7,1.8,2470.515,13.28,0.028,106.5
2021-09-28T05:43:02,42.805,6.029,0.042,0.003,0.008,103.0,102.0,101.0,13.4,1505.2,327.3,-0.7,1.8,2470.52,13.28,0.042,85.9
2021-09-28T05:46:03,42.805,6.029,0.024,-0.013,-0.023,102.0,103.0,102.0,13.4,1505.2,328.2,-0.8,1.8,2470.51,13.28,0.027,118.4
2021-09-28T05:49:02,42.805,6.029,0.02,-0.015,0.006,103.0,102.0,101.0,13.3,1505.2,329.0,-0.8,1.8,2470.523,13.28,0.025,126.9
2021-09-28T05:52:02,42.805,6.029,0.048,-0.035,-0.004,102.0,104.0,102.0,13.4,1505.2,329.5,-0.8,1.8,2470.514,13.28,0.059,126.1
2021-09-28T05:55:02,42.805,6.029,0.022,0.003,0.003,103.0,102.0,101.0,13.3,1505.2,328.1,-0.7,1.8,2470.552,13.28,0.022,82.2
2021-09-28T05:58:03,42.805,6.029,0.016,0.008,0.024,103.0,104.0,101.0,13.3,1505.2,326.4,-0.7,1.8,2470.515,13.28,0.017,63.4
2021-09-28T06:04:02,42.805,6.029,0.026,-0.01,-0.005,103.0,102.0,101.0,13.4,1505.2,330.1,-0.8,1.8,2470.554,13.28,0.027,111.0
2021-09-28T06:07:02,42.805,6.029,0.033,-0.003,0.004,103.0,103.0,101.0,13.4,1505.2,328.1,-0.7,1.8,2470.552,13.28,0.033,95.2
2021-09-28T06:10:02,42.805,6.029,0.008,-0.018,-0.018,103.0,103.0,102.0,13.3,1505.2,327.5,-0.8,1.8,2470.561,13.28,0.019,156.0
2021-09-28T06:13:03,42.805,6.029,0.03,-0.018,0.007,103.0,102.0,102.0,13.4,1505.2,327.8,-0.7,1.8,2470.534,13.28,0.034,121.0
2021-09-28T06:16:04,42.805,6.029,0.033,-0.019,0.026,103.0,102.0,101.0,13.4,1505.2,329.8,-0.8,1.8,2470.53,13.28,0.038,119.9
2021-09-28T06:19:02,42.805,6.029,0.046,-0.011,0.022,102.0,103.0,101.0,13.4,1505.2,325.6,-0.8,1.8,2470.532,13.28,0.047,103.4
2021-09-28T06:22:02,42.805,6.029,0.014,0.009,0.01,103.0,103.0,101.0,13.4,1505.2,330.0,-0.7,1.8,2470.563,13.28,0.016,57.3
2021-09-28T06:25:03,42.805,6.029,0.016,0.014,-0.008,101.0,102.0,101.0,13.4,1505.2,330.7,-0.7,1.8,2470.552,13.28,0.021,48.8
2021-09-28T06:28:02,42.805,6.029,0.011,0.0,-0.003,102.0,103.0,101.0,13.4,1505.2,327.6,-0.7,1.8,2470.526,13.28,0.011,90.0
2021-09-28T06:31:02,42.805,6.029,0.022,-0.008,0.001,102.0,102.0,100.0,13.3,1505.2,330.0,-0.8,1.8,2470.546,13.28,0.023,110.0
2021-09-28T06:34:03,42.805,6.029,0.005,0.01,-0.024,102.0,102.0,102.0,13.4,1505.2,329.8,-0.8,1.8,2470.496,13.28,0.011,26.6
2021-09-28T06:37:02,42.805,6.029,0.027,-0.02,0.011,102.0,103.0,101.0,13.4,1505.2,329.1,-0.7,1.8,2470.549,13.28,0.033,126.5
2021-09-28T06:40:03,42.805,6.029,0.018,0.001,-0.003,102.0,103.0,101.0,13.3,1505.2,330.4,-0.8,1.8,2470.522,13.28,0.018,86.8
2021-09-28T06:43:03,42.805,6.029,0.047,-0.009,0.001,102.0,103.0,102.0,13.4,1505.2,329.2,-0.7,1.8,2470.491,13.28,0.047,100.8
2021-09-28T06:46:03,42.805,6.029,0.028,0.002,0.006,102.0,101.0,102.0,13.4,1505.2,328.3,-0.8,1.8,2470.532,13.28,0.028,85.9
2021-09-28T06:49:03,42.805,6.029,0.018,-0.013,-0.004,103.0,103.0,101.0,13.3,1505.2,326.3,-0.8,1.8,2470.535,13.28,0.022,125.8
2021-09-28T06:52:02,42.805,6.029,0.02,-0.01,-0.007,102.0,103.0,101.0,13.4,1505.2,326.1,-0.8,1.8,2470.48,13.28,0.022,116.6
2021-09-28T06:55:03,42.805,6.029,0.027,0.021,0.014,103.0,103.0,100.0,13.3,1505.2,327.6,-0.7,1.8,2470.523,13.28,0.034,52.1
2021-09-28T06:58:03,42.805,6.029,0.01,0.0,-0.018,102.0,102.0,102.0,13.4,1505.2,330.0,-0.8,1.8,2470.528,13.28,0.01,90.0
2021-09-28T07:04:02,42.805,6.029,0.028,0.0,0.024,103.0,104.0,102.0,13.4,1505.2,325.5,-0.8,1.8,2470.573,13.28,0.028,90.0
2021-09-28T07:07:02,42.805,6.029,0.015,0.005,0.032,102.0,103.0,101.0,13.4,1505.2,327.0,-0.7,1.8,2470.544,13.28,0.015,71.6
2021-09-28T07:10:03,42.805,6.029,0.025,-0.001,-0.01,102.0,103.0,101.0,13.4,1505.2,331.6,-0.7,1.8,2470.572,13.28,0.025,92.3
2021-09-28T07:13:03,42.805,6.029,0.033,0.002,0.018,101.0,104.0,101.0,13.4,1505.2,328.9,-0.7,1.8,2470.545,13.28,0.033,86.5
2021-09-28T07:16:03,42.805,6.029,0.013,0.012,-0.005,102.0,103.0,101.0,13.4,1505.2,331.0,-0.8,1.8,2470.592,13.28,0.017,47.3
2021-09-28T07:19:03,42.805,6.029,0.03,0.001,-0.025,103.0,104.0,101.0,13.4,1505.2,329.5,-0.7,1.8,2470.589,13.28,0.03,88.1
2021-09-28T07:22:02,42.805,6.029,0.029,0.011,0.019,102.0,102.0,101.0,13.4,1505.2,331.6,-0.8,1.8,2470.518,13.28,0.031,69.2
2021-09-28T07:25:03,42.805,6.029,0.033,0.002,0.009,103.0,103.0,101.0,13.4,1505.2,325.2,-0.8,1.8,2470.549,13.28,0.033,86.5
2021-09-28T07:28:03,42.805,6.029,0.048,0.006,0.021,102.0,104.0,101.0,13.4,1505.2,328.1,-0.7,1.8,2470.516,13.28,0.048,82.9
2021-09-28T07:31:03,42.805,6.029,0.039,0.014,0.004,103.0,103.0,101.0,13.4,1505.2,328.0,-0.8,1.8,2470.556,13.28,0.041,70.3
2021-09-28T07:34:03,42.805,6.029,0.023,0.011,0.004,101.0,104.0,102.0,13.4,1505.2,327.9,-0.8,1.8,2470.568,13.28,0.025,64.4
2021-09-28T07:37:02,42.805,6.029,0.024,0.023,-0.015,102.0,105.0,100.0,13.3,1505.2,327.2,-0.8,1.8,2470.547,13.28,0.033,46.2
2021-09-28T07:40:03,42.805,6.029,0.03,-0.008,-0.018,103.0,102.0,102.0,13.4,1505.2,327.7,-0.8,1.8,2470.553,13.28,0.031,104.9
2021-09-28T07:43:03,42.805,6.029,0.019,0.004,0.008,102.0,103.0,101.0,13.4,1505.2,327.3,-0.7,1.8,2470.564,13.28,0.019,78.1
2021-09-28T07:46:03,42.805,6.029,0.014,-0.004,-0.016,102.0,103.0,101.0,13.3,1505.2,328.3,-0.8,1.8,2470.554,13.28,0.014,105.9
2021-09-28T07:49:03,42.805,6.029,0.014,0.028,0.019,102.0,102.0,101.0,13.4,1505.2,327.9,-0.8,1.8,2470.563,13.28,0.031,26.6
2021-09-28T07:52:02,42.805,6.029,0.018,0.012,-0.002,102.0,103.0,100.0,13.4,1505.2,326.6,-0.7,1.8,2470.525,13.28,0.021,56.3
2021-09-28T07:55:03,42.805,6.029,0.017,0.004,0.0,103.0,102.0,100.0,13.4,1505.2,326.6,-0.8,1.8,2470.55,13.28,0.017,76.8
2021-09-28T07:58:03,42.805,6.029,0.017,0.006,0.003,103.0,103.0,101.0,13.4,1505.2,326.6,-0.8,1.8,2470.496,13.28,0.018,70.6
2021-09-28T08:04:02,42.805,6.029,0.029,-0.012,0.002,102.0,103.0,101.0,13.3,1505.2,326.4,-0.7,1.8,2470.586,13.28,0.031,112.5
2021-09-28T08:07:02,42.805,6.029,0.026,0.0,-0.015,102.0,103.0,102.0,13.4,1505.2,328.7,-0.8,1.8,2470.596,13.28,0.026,90.0
2021-09-28T08:10:03,42.805,6.029,0.017,0.005,-0.034,102.0,102.0,101.0,13.4,1505.2,328.6,-0.8,1.9,2470.607,13.28,0.017,73.6
2021-09-28T08:13:03,42.805,6.029,0.012,0.01,0.014,102.0,104.0,99.0,13.4,1505.2,327.8,-0.7,1.8,2470.609,13.28,0.015,50.2
2021-09-28T08:16:03,42.805,6.029,0.022,-0.006,0.006,101.0,103.0,102.0,13.3,1505.2,329.5,-0.7,1.8,2470.561,13.28,0.022,105.3
2021-09-28T08:19:03,42.805,6.029,0.03,0.0,0.0,101.0,103.0,102.0,13.3,1505.2,331.4,-0.8,1.9,2470.577,13.28,0.03,90.0
2021-09-28T08:22:02,42.805,6.029,0.023,0.022,0.017,101.0,103.0,101.0,13.4,1505.2,328.9,-0.7,1.9,2470.538,13.28,0.031,46.3
2021-09-28T08:25:03,42.805,6.029,0.018,0.003,-0.009,104.0,101.0,100.0,13.3,1505.2,326.6,-0.8,1.8,2470.555,13.28,0.018,80.5
2021-09-28T08:28:03,42.805,6.029,0.044,0.001,0.024,102.0,102.0,101.0,13.3,1505.2,328.2,-0.7,1.8,2470.544,13.28,0.044,88.7
2021-09-28T08:31:03,42.805,6.029,0.031,0.005,-0.016,102.0,102.0,101.0,13.4,1505.2,331.5,-0.8,1.8,2470.554,13.28,0.031,80.8
2021-09-28T08:34:03,42.805,6.029,0.001,0.013,-0.034,102.0,102.0,101.0,13.3,1505.2,329.9,-0.7,1.8,2470.607,13.28,0.013,4.4
2021-09-28T08:37:02,42.805,6.029,0.01,0.031,0.024,102.0,104.0,101.0,13.4,1505.2,329.8,-0.7,1.8,2470.597,13.28,0.032,17.9
2021-09-28T08:40:03,42.805,6.029,0.04,-0.001,-0.003,103.0,103.0,101.0,13.4,1505.2,328.2,-0.8,1.8,2470.6,13.28,0.04,91.4
2021-09-28T08:43:03,42.805,6.029,0.014,-0.005,-0.001,102.0,102.0,100.0,13.4,1505.2,330.0,-0.8,1.8,2470.579,13.28,0.014,109.6
2021-09-28T08:46:03,42.805,6.029,0.018,0.013,-0.004,102.0,103.0,101.0,13.4,1505.2,331.5,-0.8,1.8,2470.611,13.28,0.022,54.2
2021-09-28T08:49:03,42.805,6.029,0.019,0.008,-0.032,102.0,102.0,100.0,13.4,1505.2,328.2,-0.7,1.8,2470.558,13.28,0.02,67.2
2021-09-28T08:52:02,42.805,6.029,0.028,0.007,-0.001,102.0,102.0,101.0,13.4,1505.2,330.9,-0.7,1.8,2470.626,13.28,0.028,76.0
2021-09-28T08:55:03,42.805,6.029,0.02,-0.003,0.006,102.0,103.0,100.0,13.3,1505.2,330.7,-0.8,1.8,2470.61,13.28,0.02,98.5
2021-09-28T08:58:03,42.805,6.029,0.026,0.0,-0.035,102.0,104.0,101.0,13.4,1505.2,328.7,-0.7,1.8,2470.588,13.28,0.026,90.0
2021-09-28T09:04:02,42.805,6.029,0.037,0.008,0.045,102.0,102.0,101.0,13.4,1505.2,330.0,-0.8,1.8,2470.634,13.28,0.037,77.8
2021-09-28T09:07:03,42.805,6.029,0.011,0.015,0.004,103.0,103.0,101.0,13.3,1505.2,325.3,-0.7,1.8,2470.614,13.28,0.018,36.3
2021-09-28T09:10:03,42.805,6.029,0.015,-0.005,0.01,102.0,102.0,101.0,13.4,1505.2,325.3,-0.8,1.8,2470.639,13.28,0.015,108.4
2021-09-28T09:13:03,42.805,6.029,0.022,0.008,0.0,101.0,104.0,100.0,13.4,1505.2,327.0,-0.7,1.8,2470.633,13.28,0.023,70.0
2021-09-28T09:16:03,42.805,6.029,0.02,0.003,0.0,102.0,103.0,100.0,13.4,1505.2,327.1,-0.7,1.8,2470.654,13.28,0.02,81.5
2021-09-28T09:19:03,42.805,6.029,0.023,-0.006,0.001,103.0,103.0,101.0,13.3,1505.2,327.6,-0.8,1.8,2470.596,13.28,0.023,104.6
2021-09-28T09:22:03,42.805,6.029,0.043,0.009,0.03,102.0,103.0,101.0,13.4,1505.2,330.1,-0.7,1.8,2470.626,13.28,0.043,78.2
2021-09-28T09:25:03,42.805,6.029,0.033,0.004,0.002,102.0,105.0,101.0,13.4,1505.2,327.7,-0.7,1.8,2470.616,13.28,0.033,83.1
2021-09-28T09:28:03,42.805,6.029,0.025,0.005,0.004,103.0,101.0,101.0,13.4,1505.2,325.8,-0.8,1.8,2470.673,13.28,0.025,78.7
2021-09-28T09:31:03,42.805,6.029,0.037,0.015,0.01,103.0,104.0,100.0,13.4,1505.2,329.1,-0.7,1.8,2470.643,13.28,0.039,67.9
2021-09-28T09:34:03,42.805,6.029,0.055,0.0,0.008,103.0,103.0,101.0,13.4,1505.2,329.5,-0.7,1.8,2470.618,13.28,0.055,90.0
2021-09-28T09:37:03,42.805,6.029,0.036,0.0,0.001,102.0,102.0,100.0,13.3,1505.2,327.7,-0.8,1.8,2470.624,13.28,0.036,90.0
2021-09-28T09:40:03,42.805,6.029,0.032,-0.013,-0.011,102.0,103.0,101.0,13.4,1505.2,326.8,-0.7,1.8,2470.644,13.28,0.034,112.1
2021-09-28T09:43:03,42.805,6.029,0.055,-0.004,-0.003,103.0,105.0,100.0,13.4,1505.2,331.1,-0.8,1.9,2470.65,13.28,0.055,94.2
2021-09-28T09:46:03,42.805,6.029,0.018,-0.009,0.0,104.0,103.0,101.0,13.4,1505.2,328.2,-0.7,1.8,2470.64,13.28,0.02,116.6
2021-09-28T09:49:03,42.805,6.029,0.024,0.016,0.008,102.0,103.0,102.0,13.4,1505.2,329.8,-0.7,1.8,2470.625,13.28,0.028,56.3
2021-09-28T09:52:02,42.805,6.029,0.026,0.012,0.006,103.0,102.0,101.0,13.3,1505.2,329.4,-0.7,1.8,2470.612,13.28,0.028,65.2
2021-09-28T09:55:03,42.805,6.029,0.046,-0.003,0.009,103.0,103.0,102.0,13.4,1505.2,330.1,-0.7,1.8,2470.645,13.28,0.046,93.7
2021-09-28T09:58:03,42.805,6.029,0.032,-0.012,0.011,102.0,104.0,101.0,13.4,1505.2,326.0,-0.8,1.8,2470.636,13.28,0.034,110.6
2021-09-28T10:04:02,42.805,6.029,0.019,0.0,-0.006,102.0,104.0,101.0,13.4,1505.2,329.7,-0.7,1.8,2470.633,13.28,0.019,90.0